Year,Month,Day,Hour,Minute,Value (Times are PST for temperature in C)
2018,04,25,00,00,9.50
2018,04,25,00,01,9.50
2018,04,25,00,02,9.40
2018,04,25,00,03,9.40
2018,04,25,00,04,9.40
2018,04,25,00,05,9.40
2018,04,25,00,06,9.30
2018,04,25,00,07,9.30
2018,04,25,00,08,9.30
2018,04,25,00,09,9.20
2018,04,25,00,10,9.20
2018,04,25,00,11,9.20
2018,04,25,00,12,9.20
2018,04,25,00,13,9.20
2018,04,25,00,14,9.20
2018,04,25,00,15,9.20
2018,04,25,00,16,9.20
2018,04,25,00,17,9.20
2018,04,25,00,18,9.10
2018,04,25,00,19,9.10
2018,04,25,00,20,9.10
2018,04,25,00,21,9.10
2018,04,25,00,22,9.10
2018,04,25,00,23,9.00
2018,04,25,00,24,9.00
2018,04,25,00,25,9.00
2018,04,25,00,26,9.00
2018,04,25,00,27,9.00
2018,04,25,00,28,8.90
2018,04,25,00,29,8.90
2018,04,25,00,30,8.90
2018,04,25,00,31,8.90
2018,04,25,00,32,8.90
2018,04,25,00,33,8.90
2018,04,25,00,34,8.80
2018,04,25,00,35,8.80
2018,04,25,00,36,8.80
2018,04,25,00,37,8.80
2018,04,25,00,38,8.70
2018,04,25,00,39,8.70
2018,04,25,00,40,8.70
2018,04,25,00,41,8.70
2018,04,25,00,42,8.70
2018,04,25,00,43,8.70
2018,04,25,00,44,8.60
2018,04,25,00,45,8.60
2018,04,25,00,46,8.60
2018,04,25,00,47,8.50
2018,04,25,00,48,8.50
2018,04,25,00,49,8.50
2018,04,25,00,50,8.40
2018,04,25,00,51,8.40
2018,04,25,00,52,8.40
2018,04,25,00,53,8.40
2018,04,25,00,54,8.40
2018,04,25,00,55,8.30
2018,04,25,00,56,8.30
2018,04,25,00,57,8.30
2018,04,25,00,58,8.20
2018,04,25,00,59,8.20
2018,04,25,01,00,8.20
2018,04,25,01,01,8.20
2018,04,25,01,02,8.20
2018,04,25,01,03,8.20
2018,04,25,01,04,8.20
2018,04,25,01,05,8.20
2018,04,25,01,06,8.20
2018,04,25,01,07,8.10
2018,04,25,01,08,8.10
2018,04,25,01,09,8.10
2018,04,25,01,10,8.00
2018,04,25,01,11,8.00
2018,04,25,01,12,8.00
2018,04,25,01,13,8.00
2018,04,25,01,14,7.90
2018,04,25,01,15,7.90
2018,04,25,01,16,7.90
2018,04,25,01,17,7.90
2018,04,25,01,18,7.90
2018,04,25,01,19,7.90
2018,04,25,01,20,7.90
2018,04,25,01,21,7.80
2018,04,25,01,22,7.80
2018,04,25,01,23,7.80
2018,04,25,01,24,7.80
2018,04,25,01,25,7.80
2018,04,25,01,26,7.80
2018,04,25,01,27,7.80
2018,04,25,01,28,7.80
2018,04,25,01,29,7.80
2018,04,25,01,30,7.80
2018,04,25,01,31,7.80
2018,04,25,01,32,7.80
2018,04,25,01,33,7.70
2018,04,25,01,34,7.70
2018,04,25,01,35,7.70
2018,04,25,01,36,7.70
2018,04,25,01,37,7.60
2018,04,25,01,38,7.60
2018,04,25,01,39,7.60
2018,04,25,01,40,7.60
2018,04,25,01,41,7.50
2018,04,25,01,42,7.50
2018,04,25,01,43,7.50
2018,04,25,01,44,7.50
2018,04,25,01,45,7.50
2018,04,25,01,46,7.50
2018,04,25,01,47,7.50
2018,04,25,01,48,7.40
2018,04,25,01,49,7.40
2018,04,25,01,50,7.40
2018,04,25,01,51,7.40
2018,04,25,01,52,7.40
2018,04,25,01,53,7.40
2018,04,25,01,54,7.40
2018,04,25,01,55,7.40
2018,04,25,01,56,7.40
2018,04,25,01,57,7.30
2018,04,25,01,58,7.30
2018,04,25,01,59,7.30
2018,04,25,02,00,7.30
2018,04,25,02,01,7.30
2018,04,25,02,02,7.30
2018,04,25,02,03,7.30
2018,04,25,02,04,7.30
2018,04,25,02,05,7.30
2018,04,25,02,06,7.30
2018,04,25,02,07,7.30
2018,04,25,02,08,7.30
2018,04,25,02,09,7.30
2018,04,25,02,10,7.30
2018,04,25,02,11,7.30
2018,04,25,02,12,7.30
2018,04,25,02,13,7.30
2018,04,25,02,14,7.30
2018,04,25,02,15,7.30
2018,04,25,02,16,7.30
2018,04,25,02,17,7.20
2018,04,25,02,18,7.20
2018,04,25,02,19,7.10
2018,04,25,02,20,7.10
2018,04,25,02,21,7.10
2018,04,25,02,22,7.00
2018,04,25,02,23,7.00
2018,04,25,02,24,7.00
2018,04,25,02,25,7.00
2018,04,25,02,26,6.90
2018,04,25,02,27,6.90
2018,04,25,02,28,6.90
2018,04,25,02,29,6.80
2018,04,25,02,30,6.80
2018,04,25,02,31,6.80
2018,04,25,02,32,6.80
2018,04,25,02,33,6.80
2018,04,25,02,34,6.80
2018,04,25,02,35,6.80
2018,04,25,02,36,6.80
2018,04,25,02,37,6.80
2018,04,25,02,38,6.80
2018,04,25,02,39,6.80
2018,04,25,02,40,6.80
2018,04,25,02,41,6.80
2018,04,25,02,42,6.80
2018,04,25,02,43,6.80
2018,04,25,02,44,6.80
2018,04,25,02,45,6.80
2018,04,25,02,46,6.80
2018,04,25,02,47,6.80
2018,04,25,02,48,6.80
2018,04,25,02,49,6.80
2018,04,25,02,50,6.80
2018,04,25,02,51,6.80
2018,04,25,02,52,6.80
2018,04,25,02,53,6.80
2018,04,25,02,54,6.80
2018,04,25,02,55,6.80
2018,04,25,02,56,6.80
2018,04,25,02,57,6.80
2018,04,25,02,58,6.80
2018,04,25,02,59,6.80
2018,04,25,03,00,6.80
2018,04,25,03,01,6.80
2018,04,25,03,02,6.80
2018,04,25,03,03,6.80
2018,04,25,03,04,6.80
2018,04,25,03,05,6.80
2018,04,25,03,06,6.80
2018,04,25,03,07,6.80
2018,04,25,03,08,6.80
2018,04,25,03,09,6.80
2018,04,25,03,10,6.80
2018,04,25,03,11,6.80
2018,04,25,03,12,6.80
2018,04,25,03,13,6.80
2018,04,25,03,14,6.80
2018,04,25,03,15,6.70
2018,04,25,03,16,6.70
2018,04,25,03,17,6.70
2018,04,25,03,18,6.70
2018,04,25,03,19,6.70
2018,04,25,03,20,6.70
2018,04,25,03,21,6.70
2018,04,25,03,22,6.70
2018,04,25,03,23,6.70
2018,04,25,03,24,6.70
2018,04,25,03,25,6.70
2018,04,25,03,26,6.70
2018,04,25,03,27,6.60
2018,04,25,03,28,6.60
2018,04,25,03,29,6.60
2018,04,25,03,30,6.60
2018,04,25,03,31,6.60
2018,04,25,03,32,6.60
2018,04,25,03,33,6.60
2018,04,25,03,34,6.60
2018,04,25,03,35,6.60
2018,04,25,03,36,6.50
2018,04,25,03,37,6.40
2018,04,25,03,38,6.40
2018,04,25,03,39,6.40
2018,04,25,03,40,6.40
2018,04,25,03,41,6.40
2018,04,25,03,42,6.40
2018,04,25,03,43,6.40
2018,04,25,03,44,6.40
2018,04,25,03,45,6.40
2018,04,25,03,46,6.40
2018,04,25,03,47,6.40
2018,04,25,03,48,6.40
2018,04,25,03,49,6.30
2018,04,25,03,50,6.30
2018,04,25,03,51,6.30
2018,04,25,03,52,6.30
2018,04,25,03,53,6.30
2018,04,25,03,54,6.30
2018,04,25,03,55,6.20
2018,04,25,03,56,6.20
2018,04,25,03,57,6.20
2018,04,25,03,58,6.20
2018,04,25,03,59,6.20
2018,04,25,04,00,6.20
2018,04,25,04,01,6.20
2018,04,25,04,02,6.20
2018,04,25,04,03,6.20
2018,04,25,04,04,6.20
2018,04,25,04,05,6.20
2018,04,25,04,06,6.20
2018,04,25,04,07,6.20
2018,04,25,04,08,6.20
2018,04,25,04,09,6.20
2018,04,25,04,10,6.20
2018,04,25,04,11,6.20
2018,04,25,04,12,6.20
2018,04,25,04,13,6.20
2018,04,25,04,14,6.20
2018,04,25,04,15,6.20
2018,04,25,04,16,6.20
2018,04,25,04,17,6.20
2018,04,25,04,18,6.20
2018,04,25,04,19,6.20
2018,04,25,04,20,6.10
2018,04,25,04,21,6.10
2018,04,25,04,22,6.10
2018,04,25,04,23,6.10
2018,04,25,04,24,6.00
2018,04,25,04,25,6.00
2018,04,25,04,26,6.00
2018,04,25,04,27,6.00
2018,04,25,04,28,6.00
2018,04,25,04,29,6.00
2018,04,25,04,30,5.90
2018,04,25,04,31,5.90
2018,04,25,04,32,5.90
2018,04,25,04,33,5.90
2018,04,25,04,34,5.80
2018,04,25,04,35,5.80
2018,04,25,04,36,5.80
2018,04,25,04,37,5.80
2018,04,25,04,38,5.80
2018,04,25,04,39,5.70
2018,04,25,04,40,5.70
2018,04,25,04,41,5.70
2018,04,25,04,42,5.70
2018,04,25,04,43,5.70
2018,04,25,04,44,5.70
2018,04,25,04,45,5.70
2018,04,25,04,46,5.70
2018,04,25,04,47,5.70
2018,04,25,04,48,5.70
2018,04,25,04,49,5.70
2018,04,25,04,50,5.70
2018,04,25,04,51,5.70
2018,04,25,04,52,5.70
2018,04,25,04,53,5.70
2018,04,25,04,54,5.70
2018,04,25,04,55,5.70
2018,04,25,04,56,5.70
2018,04,25,04,57,5.70
2018,04,25,04,58,5.70
2018,04,25,04,59,5.70
2018,04,25,05,00,5.70
2018,04,25,05,01,5.70
2018,04,25,05,02,5.70
2018,04,25,05,03,5.70
2018,04,25,05,04,5.70
2018,04,25,05,05,5.70
2018,04,25,05,06,5.70
2018,04,25,05,07,5.70
2018,04,25,05,08,5.70
2018,04,25,05,09,5.70
2018,04,25,05,10,5.60
2018,04,25,05,11,5.60
2018,04,25,05,12,5.60
2018,04,25,05,13,5.60
2018,04,25,05,14,5.60
2018,04,25,05,15,5.60
2018,04,25,05,16,5.50
2018,04,25,05,17,5.50
2018,04,25,05,18,5.50
2018,04,25,05,19,5.50
2018,04,25,05,20,5.50
2018,04,25,05,21,5.40
2018,04,25,05,22,5.40
2018,04,25,05,23,5.40
2018,04,25,05,24,5.40
2018,04,25,05,25,5.30
2018,04,25,05,26,5.30
2018,04,25,05,27,5.30
2018,04,25,05,28,5.30
2018,04,25,05,29,5.30
2018,04,25,05,30,5.30
2018,04,25,05,31,5.30
2018,04,25,05,32,5.30
2018,04,25,05,33,5.30
2018,04,25,05,34,5.30
2018,04,25,05,35,5.30
2018,04,25,05,36,5.30
2018,04,25,05,37,5.30
2018,04,25,05,38,5.30
2018,04,25,05,39,5.30
2018,04,25,05,40,5.30
2018,04,25,05,41,5.30
2018,04,25,05,42,5.30
2018,04,25,05,43,5.30
2018,04,25,05,44,5.30
2018,04,25,05,45,5.30
2018,04,25,05,46,5.30
2018,04,25,05,47,5.20
2018,04,25,05,48,5.20
2018,04,25,05,49,5.20
2018,04,25,05,50,5.20
2018,04,25,05,51,5.20
2018,04,25,05,52,5.20
2018,04,25,05,53,5.20
2018,04,25,05,54,5.20
2018,04,25,05,55,5.20
2018,04,25,05,56,5.20
2018,04,25,05,57,5.20
2018,04,25,05,58,5.20
2018,04,25,05,59,5.20
2018,04,25,06,00,5.20
2018,04,25,06,01,5.20
2018,04,25,06,02,5.20
2018,04,25,06,03,5.20
2018,04,25,06,04,5.20
2018,04,25,06,05,5.20
2018,04,25,06,06,5.20
2018,04,25,06,07,5.20
2018,04,25,06,08,5.20
2018,04,25,06,09,5.20
2018,04,25,06,10,5.20
2018,04,25,06,11,5.20
2018,04,25,06,12,5.10
2018,04,25,06,13,5.10
2018,04,25,06,14,5.10
2018,04,25,06,15,5.10
2018,04,25,06,16,5.10
2018,04,25,06,17,5.10
2018,04,25,06,18,5.10
2018,04,25,06,19,5.10
2018,04,25,06,20,5.10
2018,04,25,06,21,5.10
2018,04,25,06,22,5.10
2018,04,25,06,23,5.10
2018,04,25,06,24,5.10
2018,04,25,06,25,5.10
2018,04,25,06,26,5.10
2018,04,25,06,27,5.10
2018,04,25,06,28,5.10
2018,04,25,06,29,5.10
2018,04,25,06,30,5.10
2018,04,25,06,31,5.10
2018,04,25,06,32,5.10
2018,04,25,06,33,5.10
2018,04,25,06,34,5.10
2018,04,25,06,35,5.10
2018,04,25,06,36,5.20
2018,04,25,06,37,5.20
2018,04,25,06,38,5.20
2018,04,25,06,39,5.20
2018,04,25,06,40,5.20
2018,04,25,06,41,5.30
2018,04,25,06,42,5.30
2018,04,25,06,43,5.30
2018,04,25,06,44,5.30
2018,04,25,06,45,5.30
2018,04,25,06,46,5.30
2018,04,25,06,47,5.30
2018,04,25,06,48,5.40
2018,04,25,06,49,5.50
2018,04,25,06,50,5.60
2018,04,25,06,51,5.60
2018,04,25,06,52,5.70
2018,04,25,06,53,5.70
2018,04,25,06,54,5.80
2018,04,25,06,55,5.90
2018,04,25,06,56,6.00
2018,04,25,06,57,6.10
2018,04,25,06,58,6.20
2018,04,25,06,59,6.20
2018,04,25,07,00,6.30
2018,04,25,07,01,6.30
2018,04,25,07,02,6.30
2018,04,25,07,03,6.40
2018,04,25,07,04,6.40
2018,04,25,07,05,6.40
2018,04,25,07,06,6.40
2018,04,25,07,07,6.40
2018,04,25,07,08,6.40
2018,04,25,07,09,6.40
2018,04,25,07,10,6.50
2018,04,25,07,11,6.60
2018,04,25,07,12,6.60
2018,04,25,07,13,6.60
2018,04,25,07,14,6.70
2018,04,25,07,15,6.70
2018,04,25,07,16,6.80
2018,04,25,07,17,6.90
2018,04,25,07,18,7.00
2018,04,25,07,19,7.20
2018,04,25,07,20,7.30
2018,04,25,07,21,7.50
2018,04,25,07,22,7.60
2018,04,25,07,23,7.80
2018,04,25,07,24,7.90
2018,04,25,07,25,8.00
2018,04,25,07,26,8.20
2018,04,25,07,27,8.30
2018,04,25,07,28,8.40
2018,04,25,07,29,8.50
2018,04,25,07,30,8.60
2018,04,25,07,31,8.70
2018,04,25,07,32,8.70
2018,04,25,07,33,8.80
2018,04,25,07,34,8.90
2018,04,25,07,35,9.00
2018,04,25,07,36,9.10
2018,04,25,07,37,9.30
2018,04,25,07,38,9.40
2018,04,25,07,39,9.50
2018,04,25,07,40,9.70
2018,04,25,07,41,9.80
2018,04,25,07,42,9.90
2018,04,25,07,43,10.00
2018,04,25,07,44,10.10
2018,04,25,07,45,10.20
2018,04,25,07,46,10.30
2018,04,25,07,47,10.40
2018,04,25,07,48,10.50
2018,04,25,07,49,10.60
2018,04,25,07,50,10.60
2018,04,25,07,51,10.70
2018,04,25,07,52,10.70
2018,04,25,07,53,10.70
2018,04,25,07,54,10.70
2018,04,25,07,55,10.80
2018,04,25,07,56,10.90
2018,04,25,07,57,11.00
2018,04,25,07,58,11.10
2018,04,25,07,59,11.20
2018,04,25,08,00,11.30
2018,04,25,08,01,11.40
2018,04,25,08,02,11.50
2018,04,25,08,03,11.60
2018,04,25,08,04,11.70
2018,04,25,08,05,11.80
2018,04,25,08,06,12.00
2018,04,25,08,07,12.20
2018,04,25,08,08,12.30
2018,04,25,08,09,12.50
2018,04,25,08,10,12.60
2018,04,25,08,11,12.70
2018,04,25,08,12,12.80
2018,04,25,08,13,13.00
2018,04,25,08,14,13.00
2018,04,25,08,15,13.10
2018,04,25,08,16,13.20
2018,04,25,08,17,13.30
2018,04,25,08,18,13.40
2018,04,25,08,19,13.50
2018,04,25,08,20,13.60
2018,04,25,08,21,13.70
2018,04,25,08,22,13.80
2018,04,25,08,23,13.90
2018,04,25,08,24,13.90
2018,04,25,08,25,14.00
2018,04,25,08,26,14.00
2018,04,25,08,27,14.10
2018,04,25,08,28,14.10
2018,04,25,08,29,14.20
2018,04,25,08,30,14.20
2018,04,25,08,31,14.30
2018,04,25,08,32,14.30
2018,04,25,08,33,14.40
2018,04,25,08,34,14.50
2018,04,25,08,35,14.50
2018,04,25,08,36,14.50
2018,04,25,08,37,14.60
2018,04,25,08,38,14.70
2018,04,25,08,39,14.70
2018,04,25,08,40,14.80
2018,04,25,08,41,14.80
2018,04,25,08,42,14.90
2018,04,25,08,43,14.90
2018,04,25,08,44,14.90
2018,04,25,08,45,15.00
2018,04,25,08,46,15.00
2018,04,25,08,47,15.00
2018,04,25,08,48,15.10
2018,04,25,08,49,15.10
2018,04,25,08,50,15.10
2018,04,25,08,51,15.10
2018,04,25,08,52,15.20
2018,04,25,08,53,15.20
2018,04,25,08,54,15.20
2018,04,25,08,55,15.20
2018,04,25,08,56,15.30
2018,04,25,08,57,15.30
2018,04,25,08,58,15.30
2018,04,25,08,59,15.40
2018,04,25,09,00,15.40
2018,04,25,09,01,15.50
2018,04,25,09,02,15.50
2018,04,25,09,03,15.60
2018,04,25,09,04,15.60
2018,04,25,09,05,15.70
2018,04,25,09,06,15.70
2018,04,25,09,07,15.80
2018,04,25,09,08,15.80
2018,04,25,09,09,15.80
2018,04,25,09,10,15.80
2018,04,25,09,11,15.90
2018,04,25,09,12,15.90
2018,04,25,09,13,16.00
2018,04,25,09,14,16.10
2018,04,25,09,15,16.10
2018,04,25,09,16,16.10
2018,04,25,09,17,16.20
2018,04,25,09,18,16.30
2018,04,25,09,19,16.30
2018,04,25,09,20,16.40
2018,04,25,09,21,16.40
2018,04,25,09,22,16.40
2018,04,25,09,23,16.50
2018,04,25,09,24,16.60
2018,04,25,09,25,16.60
2018,04,25,09,26,16.60
2018,04,25,09,27,16.70
2018,04,25,09,28,16.70
2018,04,25,09,29,16.70
2018,04,25,09,30,16.70
2018,04,25,09,31,16.80
2018,04,25,09,32,16.80
2018,04,25,09,33,16.90
2018,04,25,09,34,16.90
2018,04,25,09,35,17.00
2018,04,25,09,36,17.00
2018,04,25,09,37,17.00
2018,04,25,09,38,17.10
2018,04,25,09,39,17.10
2018,04,25,09,40,17.20
2018,04,25,09,41,17.20
2018,04,25,09,42,17.30
2018,04,25,09,43,17.30
2018,04,25,09,44,17.30
2018,04,25,09,45,17.40
2018,04,25,09,46,17.40
2018,04,25,09,47,17.50
2018,04,25,09,48,17.50
2018,04,25,09,49,17.50
2018,04,25,09,50,17.60
2018,04,25,09,51,17.60
2018,04,25,09,52,17.60
2018,04,25,09,53,17.60
2018,04,25,09,54,17.60
2018,04,25,09,55,17.60
2018,04,25,09,56,17.70
2018,04,25,09,57,17.70
2018,04,25,09,58,17.80
2018,04,25,09,59,17.80
2018,04,25,10,00,17.90
2018,04,25,10,01,17.90
2018,04,25,10,02,17.90
2018,04,25,10,03,18.00
2018,04,25,10,04,18.10
2018,04,25,10,05,18.20
2018,04,25,10,06,18.20
2018,04,25,10,07,18.30
2018,04,25,10,08,18.30
2018,04,25,10,09,18.30
2018,04,25,10,10,18.30
2018,04,25,10,11,18.40
2018,04,25,10,12,18.40
2018,04,25,10,13,18.40
2018,04,25,10,14,18.50
2018,04,25,10,15,18.50
2018,04,25,10,16,18.50
2018,04,25,10,17,18.60
2018,04,25,10,18,18.60
2018,04,25,10,19,18.60
2018,04,25,10,20,18.60
2018,04,25,10,21,18.60
2018,04,25,10,22,18.60
2018,04,25,10,23,18.60
2018,04,25,10,24,18.60
2018,04,25,10,25,18.60
2018,04,25,10,26,18.60
2018,04,25,10,27,18.60
2018,04,25,10,28,18.60
2018,04,25,10,29,18.70
2018,04,25,10,30,18.80
2018,04,25,10,31,18.80
2018,04,25,10,32,18.80
2018,04,25,10,33,18.80
2018,04,25,10,34,18.90
2018,04,25,10,35,18.90
2018,04,25,10,36,18.90
2018,04,25,10,37,18.80
2018,04,25,10,38,18.80
2018,04,25,10,39,18.80
2018,04,25,10,40,18.70
2018,04,25,10,41,18.70
2018,04,25,10,42,18.70
2018,04,25,10,43,18.80
2018,04,25,10,44,18.80
2018,04,25,10,45,18.90
2018,04,25,10,46,18.80
2018,04,25,10,47,18.90
2018,04,25,10,48,18.90
2018,04,25,10,49,18.90
2018,04,25,10,50,19.00
2018,04,25,10,51,19.10
2018,04,25,10,52,19.10
2018,04,25,10,53,19.10
2018,04,25,10,54,19.20
2018,04,25,10,55,19.20
2018,04,25,10,56,19.20
2018,04,25,10,57,19.20
2018,04,25,10,58,19.30
2018,04,25,10,59,19.30
2018,04,25,11,00,19.30
2018,04,25,11,01,19.30
2018,04,25,11,02,19.40
2018,04,25,11,03,19.40
2018,04,25,11,04,19.40
2018,04,25,11,05,19.40
2018,04,25,11,06,19.30
2018,04,25,11,07,19.30
2018,04,25,11,08,19.30
2018,04,25,11,09,19.30
2018,04,25,11,10,19.30
2018,04,25,11,11,19.30
2018,04,25,11,12,19.40
2018,04,25,11,13,19.50
2018,04,25,11,14,19.60
2018,04,25,11,15,19.60
2018,04,25,11,16,19.60
2018,04,25,11,17,19.60
2018,04,25,11,18,19.60
2018,04,25,11,19,19.60
2018,04,25,11,20,19.60
2018,04,25,11,21,19.60
2018,04,25,11,22,19.60
2018,04,25,11,23,19.50
2018,04,25,11,24,19.60
2018,04,25,11,25,19.60
2018,04,25,11,26,19.70
2018,04,25,11,27,19.80
2018,04,25,11,28,19.80
2018,04,25,11,29,19.90
2018,04,25,11,30,19.90
2018,04,25,11,31,19.80
2018,04,25,11,32,19.80
2018,04,25,11,33,19.80
2018,04,25,11,34,19.70
2018,04,25,11,35,19.60
2018,04,25,11,36,19.70
2018,04,25,11,37,19.60
2018,04,25,11,38,19.60
2018,04,25,11,39,19.50
2018,04,25,11,40,19.50
2018,04,25,11,41,19.50
2018,04,25,11,42,19.40
2018,04,25,11,43,19.40
2018,04,25,11,44,19.40
2018,04,25,11,45,19.40
2018,04,25,11,46,19.40
2018,04,25,11,47,19.40
2018,04,25,11,48,19.50
2018,04,25,11,49,19.50
2018,04,25,11,50,19.60
2018,04,25,11,51,19.70
2018,04,25,11,52,19.70
2018,04,25,11,53,19.80
2018,04,25,11,54,19.90
2018,04,25,11,55,19.90
2018,04,25,11,56,19.90
2018,04,25,11,57,20.00
2018,04,25,11,58,20.00
2018,04,25,11,59,19.90
2018,04,25,12,00,20.00
2018,04,25,12,01,20.00
2018,04,25,12,02,19.90
2018,04,25,12,03,19.90
2018,04,25,12,04,19.90
2018,04,25,12,05,20.00
2018,04,25,12,06,20.10
2018,04,25,12,07,20.20
2018,04,25,12,08,20.20
2018,04,25,12,09,20.20
2018,04,25,12,10,20.20
2018,04,25,12,11,20.10
2018,04,25,12,12,20.10
2018,04,25,12,13,20.10
2018,04,25,12,14,20.10
2018,04,25,12,15,20.10
2018,04,25,12,16,20.20
2018,04,25,12,17,20.20
2018,04,25,12,18,20.10
2018,04,25,12,19,20.00
2018,04,25,12,20,19.90
2018,04,25,12,21,19.90
2018,04,25,12,22,19.80
2018,04,25,12,23,19.80
2018,04,25,12,24,19.80
2018,04,25,12,25,19.90
2018,04,25,12,26,19.90
2018,04,25,12,27,19.80
2018,04,25,12,28,19.80
2018,04,25,12,29,19.80
2018,04,25,12,30,19.80
2018,04,25,12,31,19.80
2018,04,25,12,32,19.90
2018,04,25,12,33,19.90
2018,04,25,12,34,19.90
2018,04,25,12,35,19.90
2018,04,25,12,36,19.90
2018,04,25,12,37,19.90
2018,04,25,12,38,19.90
2018,04,25,12,39,19.90
2018,04,25,12,40,20.00
2018,04,25,12,41,19.90
2018,04,25,12,42,20.00
2018,04,25,12,43,20.10
2018,04,25,12,44,20.20
2018,04,25,12,45,20.20
2018,04,25,12,46,20.20
2018,04,25,12,47,20.30
2018,04,25,12,48,20.40
2018,04,25,12,49,20.40
2018,04,25,12,50,20.50
2018,04,25,12,51,20.50
2018,04,25,12,52,20.50
2018,04,25,12,53,20.50
2018,04,25,12,54,20.60
2018,04,25,12,55,20.70
2018,04,25,12,56,20.70
2018,04,25,12,57,20.80
2018,04,25,12,58,20.80
2018,04,25,12,59,20.90
2018,04,25,13,00,20.90
2018,04,25,13,01,21.00
2018,04,25,13,02,21.00
2018,04,25,13,03,21.00
2018,04,25,13,04,21.10
2018,04,25,13,05,21.10
2018,04,25,13,06,21.10
2018,04,25,13,07,21.10
2018,04,25,13,08,21.20
2018,04,25,13,09,21.20
2018,04,25,13,10,21.10
2018,04,25,13,11,21.00
2018,04,25,13,12,21.00
2018,04,25,13,13,20.90
2018,04,25,13,14,21.00
2018,04,25,13,15,21.10
2018,04,25,13,16,21.10
2018,04,25,13,17,21.20
2018,04,25,13,18,21.30
2018,04,25,13,19,21.30
2018,04,25,13,20,21.30
2018,04,25,13,21,21.40
2018,04,25,13,22,21.50
2018,04,25,13,23,21.60
2018,04,25,13,24,21.60
2018,04,25,13,25,21.70
2018,04,25,13,26,21.80
2018,04,25,13,27,21.80
2018,04,25,13,28,21.80
2018,04,25,13,29,21.90
2018,04,25,13,30,21.90
2018,04,25,13,31,21.80
2018,04,25,13,32,21.80
2018,04,25,13,33,21.80
2018,04,25,13,34,21.80
2018,04,25,13,35,21.80
2018,04,25,13,36,21.80
2018,04,25,13,37,21.80
2018,04,25,13,38,21.80
2018,04,25,13,39,21.80
2018,04,25,13,40,21.80
2018,04,25,13,41,21.90
2018,04,25,13,42,21.90
2018,04,25,13,43,22.00
2018,04,25,13,44,22.10
2018,04,25,13,45,22.30
2018,04,25,13,46,22.30
2018,04,25,13,47,22.50
2018,04,25,13,48,22.50
2018,04,25,13,49,22.60
2018,04,25,13,50,22.70
2018,04,25,13,51,22.70
2018,04,25,13,52,22.70
2018,04,25,13,53,22.60
2018,04,25,13,54,22.50
2018,04,25,13,55,22.50
2018,04,25,13,56,22.50
2018,04,25,13,57,22.50
2018,04,25,13,58,22.50
2018,04,25,13,59,22.50
2018,04,25,14,00,22.50
2018,04,25,14,01,22.50
2018,04,25,14,02,22.40
2018,04,25,14,03,22.40
2018,04,25,14,04,22.40
2018,04,25,14,05,22.40
2018,04,25,14,06,22.40
2018,04,25,14,07,22.40
2018,04,25,14,08,22.40
2018,04,25,14,09,22.40
2018,04,25,14,10,22.40
2018,04,25,14,11,22.50
2018,04,25,14,12,22.60
2018,04,25,14,13,22.60
2018,04,25,14,14,22.60
2018,04,25,14,15,22.60
2018,04,25,14,16,22.70
2018,04,25,14,17,22.70
2018,04,25,14,18,22.80
2018,04,25,14,19,22.90
2018,04,25,14,20,23.00
2018,04,25,14,21,23.10
2018,04,25,14,22,23.30
2018,04,25,14,23,23.30
2018,04,25,14,24,23.10
2018,04,25,14,25,23.00
2018,04,25,14,26,22.90
2018,04,25,14,27,22.80
2018,04,25,14,28,22.70
2018,04,25,14,29,22.60
2018,04,25,14,30,22.40
2018,04,25,14,31,22.20
2018,04,25,14,32,22.00
2018,04,25,14,33,21.90
2018,04,25,14,34,21.70
2018,04,25,14,35,21.50
2018,04,25,14,36,21.40
2018,04,25,14,37,21.40
2018,04,25,14,38,21.50
2018,04,25,14,39,21.60
2018,04,25,14,40,21.70
2018,04,25,14,41,21.90
2018,04,25,14,42,22.10
2018,04,25,14,43,22.20
2018,04,25,14,44,22.30
2018,04,25,14,45,22.40
2018,04,25,14,46,22.50
2018,04,25,14,47,22.60
2018,04,25,14,48,22.60
2018,04,25,14,49,22.70
2018,04,25,14,50,22.80
2018,04,25,14,51,22.90
2018,04,25,14,52,23.00
2018,04,25,14,53,23.10
2018,04,25,14,54,23.20
2018,04,25,14,55,23.30
2018,04,25,14,56,23.30
2018,04,25,14,57,23.30
2018,04,25,14,58,23.40
2018,04,25,14,59,23.50
2018,04,25,15,00,23.60
2018,04,25,15,01,23.70
2018,04,25,15,02,23.70
2018,04,25,15,03,23.70
2018,04,25,15,04,23.70
2018,04,25,15,05,23.70
2018,04,25,15,06,23.70
2018,04,25,15,07,23.70
2018,04,25,15,08,23.70
2018,04,25,15,09,23.70
2018,04,25,15,10,23.60
2018,04,25,15,11,23.50
2018,04,25,15,12,23.40
2018,04,25,15,13,23.30
2018,04,25,15,14,23.30
2018,04,25,15,15,23.40
2018,04,25,15,16,23.30
2018,04,25,15,17,23.30
2018,04,25,15,18,23.40
2018,04,25,15,19,23.40
2018,04,25,15,20,23.60
2018,04,25,15,21,23.70
2018,04,25,15,22,23.60
2018,04,25,15,23,23.40
2018,04,25,15,24,23.10
2018,04,25,15,25,22.90
2018,04,25,15,26,22.70
2018,04,25,15,27,22.60
2018,04,25,15,28,22.40
2018,04,25,15,29,22.40
2018,04,25,15,30,22.40
2018,04,25,15,31,22.30
2018,04,25,15,32,22.30
2018,04,25,15,33,22.50
2018,04,25,15,34,22.60
2018,04,25,15,35,22.80
2018,04,25,15,36,22.90
2018,04,25,15,37,23.10
2018,04,25,15,38,23.20
2018,04,25,15,39,23.30
2018,04,25,15,40,23.30
2018,04,25,15,41,23.40
2018,04,25,15,42,23.50
2018,04,25,15,43,23.60
2018,04,25,15,44,23.60
2018,04,25,15,45,23.70
2018,04,25,15,46,23.70
2018,04,25,15,47,23.90
2018,04,25,15,48,24.00
2018,04,25,15,49,24.10
2018,04,25,15,50,24.30
2018,04,25,15,51,24.40
2018,04,25,15,52,24.40
2018,04,25,15,53,24.40
2018,04,25,15,54,24.50
2018,04,25,15,55,24.50
2018,04,25,15,56,24.60
2018,04,25,15,57,24.60
2018,04,25,15,58,24.60
2018,04,25,15,59,24.60
2018,04,25,16,00,24.70
2018,04,25,16,01,24.70
2018,04,25,16,02,24.70
2018,04,25,16,03,24.70
2018,04,25,16,04,24.70
2018,04,25,16,05,24.70
2018,04,25,16,06,24.70
2018,04,25,16,07,24.70
2018,04,25,16,08,24.70
2018,04,25,16,09,24.70
2018,04,25,16,10,24.60
2018,04,25,16,11,24.60
2018,04,25,16,12,24.60
2018,04,25,16,13,24.60
2018,04,25,16,14,24.60
2018,04,25,16,15,24.60
2018,04,25,16,16,24.60
2018,04,25,16,17,24.50
2018,04,25,16,18,24.50
2018,04,25,16,19,24.40
2018,04,25,16,20,24.30
2018,04,25,16,21,24.30
2018,04,25,16,22,24.30
2018,04,25,16,23,24.30
2018,04,25,16,24,24.30
2018,04,25,16,25,24.40
2018,04,25,16,26,24.40
2018,04,25,16,27,24.50
2018,04,25,16,28,24.50
2018,04,25,16,29,24.40
2018,04,25,16,30,24.50
2018,04,25,16,31,24.50
2018,04,25,16,32,24.60
2018,04,25,16,33,24.70
2018,04,25,16,34,24.80
2018,04,25,16,35,24.80
2018,04,25,16,36,24.90
2018,04,25,16,37,25.00
2018,04,25,16,38,25.00
2018,04,25,16,39,25.00
2018,04,25,16,40,25.10
2018,04,25,16,41,25.00
2018,04,25,16,42,24.90
2018,04,25,16,43,24.50
2018,04,25,16,44,24.30
2018,04,25,16,45,24.10
2018,04,25,16,46,23.90
2018,04,25,16,47,23.70
2018,04,25,16,48,23.60
2018,04,25,16,49,23.30
2018,04,25,16,50,23.20
2018,04,25,16,51,23.10
2018,04,25,16,52,22.90
2018,04,25,16,53,22.60
2018,04,25,16,54,22.40
2018,04,25,16,55,22.10
2018,04,25,16,56,21.60
2018,04,25,16,57,20.90
2018,04,25,16,58,20.40
2018,04,25,16,59,20.10
2018,04,25,17,00,19.70
2018,04,25,17,01,19.40
2018,04,25,17,02,19.20
2018,04,25,17,03,19.10
2018,04,25,17,04,19.10
2018,04,25,17,05,19.30
2018,04,25,17,06,19.40
2018,04,25,17,07,19.60
2018,04,25,17,08,19.60
2018,04,25,17,09,19.50
2018,04,25,17,10,19.40
2018,04,25,17,11,19.20
2018,04,25,17,12,19.00
2018,04,25,17,13,18.90
2018,04,25,17,14,18.80
2018,04,25,17,15,18.70
2018,04,25,17,16,18.60
2018,04,25,17,17,18.40
2018,04,25,17,18,18.20
2018,04,25,17,19,18.10
2018,04,25,17,20,18.00
2018,04,25,17,21,17.90
2018,04,25,17,22,17.90
2018,04,25,17,23,17.90
2018,04,25,17,24,17.90
2018,04,25,17,25,17.90
2018,04,25,17,26,17.90
2018,04,25,17,27,17.90
2018,04,25,17,28,17.90
2018,04,25,17,29,17.90
2018,04,25,17,30,17.90
2018,04,25,17,31,17.90
2018,04,25,17,32,17.90
2018,04,25,17,33,17.90
2018,04,25,17,34,17.90
2018,04,25,17,35,17.90
2018,04,25,17,36,17.90
2018,04,25,17,37,17.80
2018,04,25,17,38,17.80
2018,04,25,17,39,17.90